• In Uzbekistan
  • List of Countries
  • For 7 days
  • Water Temperature
  • Satellite Maps
  • Weather Map
  • Weather Widgets
  • user-avatar
    Login

    Hourly Weather Trujillo

    Today, 24 May, Friday

    Time Temperature Precipitation Wind Pressure Humidity
    00:00 +20°C° 1.3 mm 1 mps 647 mmHg 87%
    01:00 +20°C° 1.3 mm 1 mps 647 mmHg 86%
    02:00 +20°C° 1.1 mm 1 mps 647 mmHg 86%
    03:00 +20°C° 1.1 mm 1 mps 647 mmHg 86%
    04:00 +19°C° 1.1 mm 1 mps 647 mmHg 86%
    05:00 +20°C° 1.1 mm 1 mps 647 mmHg 85%
    06:00 +20°C° 1.1 mm 1 mps 647 mmHg 85%
    07:00 +20°C° 1.1 mm 1 mps 647 mmHg 84%
    08:00 +21°C° 1 mm 1 mps 648 mmHg 82%
    09:00 +22°C° 1 mm 1 mps 648 mmHg 80%
    10:00 +23°C° 1 mm 1 mps 648 mmHg 77%
    11:00 +24°C° 0.3 mm 1 mps 648 mmHg 72%
    12:00 +26°C° 0.3 mm 1 mps 648 mmHg 67%
    13:00 +27°C° 0.3 mm 1 mps 648 mmHg 63%
    14:00 +26°C° 0.2 mm 1 mps 647 mmHg 64%
    15:00 +26°C° 0.2 mm 1 mps 647 mmHg 65%
    16:00 +26°C° 0.2 mm 1 mps 646 mmHg 66%
    17:00 +24°C° 0.5 mm 1 mps 646 mmHg 72%
    18:00 +23°C° 0.5 mm 1 mps 646 mmHg 79%
    19:00 +21°C° 0.5 mm 1 mps 646 mmHg 86%
    20:00 +21°C° 0.7 mm 1 mps 646 mmHg 87%
    21:00 +21°C° 0.7 mm 1 mps 647 mmHg 88%
    22:00 +21°C° 0.7 mm 1 mps 647 mmHg 89%
    23:00 +20°C° 1 mm 1 mps 647 mmHg 89%

    Tomorrow, 25 May, Saturday

    Time Temperature Precipitation Wind Pressure Humidity
    00:00 +20°C° 1 mm 1 mps 647 mmHg 89%
    01:00 +20°C° 1 mm 1 mps 646 mmHg 89%
    02:00 +20°C° 1 mm 1 mps 646 mmHg 89%
    03:00 +20°C° 1 mm 1 mps 646 mmHg 88%
    04:00 +19°C° 1 mm 1 mps 646 mmHg 88%
    05:00 +20°C° 0.2 mm 1 mps 646 mmHg 86%
    06:00 +20°C° 0.2 mm 1 mps 647 mmHg 83%
    07:00 +20°C° 0.2 mm 1 mps 647 mmHg 81%
    08:00 +22°C° 0.1 mm 1 mps 648 mmHg 74%
    09:00 +24°C° 0.1 mm 1 mps 649 mmHg 66%
    10:00 +26°C° 0.1 mm 1 mps 649 mmHg 59%
    11:00 +27°C° 0.1 mm 1 mps 649 mmHg 58%
    12:00 +27°C° 0.1 mm 1 mps 648 mmHg 58%
    13:00 +27°C° 0.1 mm 1 mps 648 mmHg 58%
    14:00 +26°C° 0.4 mm 1 mps 647 mmHg 63%
    15:00 +26°C° 0.4 mm 1 mps 646 mmHg 68%
    16:00 +25°C° 0.4 mm 1 mps 646 mmHg 74%
    17:00 +23°C° 1.1 mm 1 mps 646 mmHg 80%
    18:00 +22°C° 1.1 mm 1 mps 646 mmHg 86%
    19:00 +21°C° 1.1 mm 1 mps 646 mmHg 91%
    20:00 +21°C° 0.5 mm 1 mps 646 mmHg 91%
    21:00 +20°C° 0.5 mm 1 mps 647 mmHg 90%
    22:00 +20°C° 0.5 mm 1 mps 647 mmHg 90%
    23:00 +20°C° 0.4 mm 1 mps 647 mmHg 88%

    Day after tomorrow, 26 May, Sunday

    Time Temperature Precipitation Wind Pressure Humidity
    00:00 +20°C° 0.4 mm 1 mps 646 mmHg 87%
    01:00 +20°C° 0.4 mm 1 mps 646 mmHg 86%
    02:00 +20°C° 0.7 mm 1 mps 646 mmHg 85%
    03:00 +20°C° 0.7 mm 1 mps 646 mmHg 84%
    04:00 +20°C° 0.7 mm 1 mps 646 mmHg 83%
    05:00 +20°C° 0.4 mm 1 mps 646 mmHg 82%
    06:00 +20°C° 0.4 mm 1 mps 647 mmHg 81%
    07:00 +21°C° 0.4 mm 1 mps 647 mmHg 80%
    08:00 +22°C° 0.3 mm 1 mps 648 mmHg 76%
    09:00 +24°C° 0.3 mm 1 mps 649 mmHg 72%
    10:00 +25°C° 0.3 mm 1 mps 649 mmHg 68%
    11:00 +25°C° 0.7 mm 1 mps 649 mmHg 70%
    12:00 +25°C° 0.7 mm 1 mps 648 mmHg 71%
    13:00 +25°C° 0.7 mm 1 mps 648 mmHg 73%
    14:00 +24°C° 1.3 mm 1 mps 647 mmHg 76%
    15:00 +24°C° 1.3 mm 1 mps 646 mmHg 80%
    16:00 +23°C° 1.3 mm 1 mps 646 mmHg 83%
    17:00 +22°C° 0.9 mm 1 mps 646 mmHg 86%
    18:00 +21°C° 0.9 mm 1 mps 646 mmHg 89%
    19:00 +21°C° 0.9 mm 1 mps 646 mmHg 92%
    20:00 +20°C° 0.3 mm 1 mps 646 mmHg 91%
    21:00 +20°C° 0.3 mm 1 mps 647 mmHg 90%
    22:00 +20°C° 0.3 mm 1 mps 647 mmHg 89%
    23:00 +20°C° 0.5 mm 1 mps 646 mmHg 88%

    27 May, Monday

    Time Temperature Precipitation Wind Pressure Humidity
    00:00 +20°C° 0.5 mm 1 mps 646 mmHg 86%
    01:00 +19°C° 0.5 mm 1 mps 646 mmHg 85%
    02:00 +19°C° 0.9 mm 1 mps 646 mmHg 85%
    03:00 +19°C° 0.9 mm 1 mps 645 mmHg 85%
    04:00 +19°C° 0.9 mm 1 mps 645 mmHg 84%
    05:00 +19°C° 0.8 mm 1 mps 646 mmHg 84%
    06:00 +20°C° 0.8 mm 1 mps 646 mmHg 84%
    07:00 +20°C° 0.8 mm 1 mps 647 mmHg 83%
    08:00 +21°C° 0.9 mm 1 mps 647 mmHg 81%
    09:00 +22°C° 0.9 mm 1 mps 648 mmHg 79%
    10:00 +23°C° 0.9 mm 1 mps 648 mmHg 77%
    11:00 +23°C° 1.1 mm 1 mps 648 mmHg 76%
    12:00 +24°C° 1.1 mm 1 mps 648 mmHg 76%
    13:00 +22°C° 1.1 mm 0 mps 647 mmHg 75%
    14:00 +22°C° 0.9 mm 0 mps 646 mmHg 78%
    15:00 +21°C° 0.9 mm 0 mps 646 mmHg 81%
    16:00 +21°C° 0.9 mm 0 mps 645 mmHg 84%
    17:00 +20°C° 0.3 mm 0 mps 645 mmHg 86%
    18:00 +19°C° 0.3 mm 0 mps 646 mmHg 88%
    19:00 +19°C° 0.3 mm 0 mps 646 mmHg 90%
    20:00 +20°C° 0.3 mm 1 mps 646 mmHg 89%
    21:00 +20°C° 0.3 mm 1 mps 647 mmHg 89%
    22:00 +20°C° 0.3 mm 1 mps 647 mmHg 88%
    23:00 +20°C° 0.2 mm 1 mps 647 mmHg 87%

    28 May, Tuesday

    Time Temperature Precipitation Wind Pressure Humidity
    00:00 +20°C° 0.2 mm 1 mps 646 mmHg 86%
    01:00 +19°C° 0.2 mm 1 mps 646 mmHg 85%
    02:00 +19°C° 0.2 mm 1 mps 646 mmHg 83%
    03:00 +19°C° 0.2 mm 1 mps 646 mmHg 82%
    04:00 +18°C° 0.2 mm 1 mps 645 mmHg 80%
    05:00 +19°C° 0.3 mm 1 mps 646 mmHg 79%
    06:00 +19°C° 0.3 mm 1 mps 647 mmHg 77%
    07:00 +20°C° 0.3 mm 1 mps 647 mmHg 76%
    08:00 +21°C° 0.4 mm 1 mps 648 mmHg 74%
    09:00 +23°C° 0.4 mm 1 mps 648 mmHg 71%
    10:00 +24°C° 0.4 mm 1 mps 649 mmHg 69%
    11:00 +24°C° 1.2 mm 1 mps 648 mmHg 72%
    12:00 +24°C° 1.2 mm 1 mps 648 mmHg 74%
    13:00 +23°C° 1.2 mm 1 mps 647 mmHg 76%
    14:00 +21°C° 1.2 mm 0 mps 647 mmHg 79%
    15:00 +20°C° 1.2 mm 0 mps 646 mmHg 83%
    16:00 +20°C° 1.2 mm 0 mps 645 mmHg 86%
    17:00 +19°C° 0.6 mm 0 mps 646 mmHg 88%
    18:00 +19°C° 0.6 mm 0 mps 646 mmHg 89%
    19:00 +20°C° 0.6 mm 1 mps 646 mmHg 90%
    20:00 +20°C° 0.3 mm 1 mps 646 mmHg 90%
    21:00 +19°C° 0.3 mm 1 mps 647 mmHg 89%
    22:00 +19°C° 0.3 mm 1 mps 647 mmHg 89%
    23:00 +19°C° 0.1 mm 1 mps 646 mmHg 88%

    29 May, Wednesday

    Time Temperature Precipitation Wind Pressure Humidity
    00:00 +19°C° 0.1 mm 1 mps 646 mmHg 87%
    01:00 +19°C° 0.1 mm 1 mps 646 mmHg 86%
    02:00 +18°C° 0.1 mm 1 mps 646 mmHg 85%
    03:00 +18°C° 0.1 mm 1 mps 646 mmHg 83%
    04:00 +18°C° 0.1 mm 1 mps 645 mmHg 82%
    05:00 +19°C° 0 mm 1 mps 646 mmHg 79%
    06:00 +20°C° 0 mm 1 mps 647 mmHg 76%
    07:00 +21°C° 0 mm 1 mps 648 mmHg 73%
    08:00 +23°C° 0.2 mm 1 mps 648 mmHg 71%
    09:00 +24°C° 0.2 mm 1 mps 649 mmHg 68%
    10:00 +25°C° 0.2 mm 1 mps 649 mmHg 65%
    11:00 +25°C° 1 mm 1 mps 648 mmHg 69%
    12:00 +24°C° 1 mm 1 mps 648 mmHg 73%
    13:00 +24°C° 1 mm 1 mps 647 mmHg 77%
    14:00 +23°C° 1.7 mm 1 mps 646 mmHg 81%
    15:00 +23°C° 1.7 mm 1 mps 646 mmHg 86%
    16:00 +22°C° 1.7 mm 1 mps 645 mmHg 90%
    17:00 +21°C° 1.7 mm 1 mps 646 mmHg 91%
    18:00 +21°C° 1.7 mm 1 mps 646 mmHg 92%
    19:00 +20°C° 1.7 mm 1 mps 646 mmHg 93%
    20:00 +20°C° 1.7 mm 1 mps 647 mmHg 93%
    21:00 +20°C° 1.7 mm 1 mps 647 mmHg 93%
    22:00 +20°C° 1.7 mm 1 mps 647 mmHg 93%
    23:00 +20°C° 1.4 mm 1 mps 647 mmHg 93%
    Show more